Location: Kitchener
(43.4500°N, 80.5000°W)
Time: 23:12:43
(UTC-04:00)

ISS - Visible Passes

Search period start: 23 September 2017 00:00
Search period end: 03 October 2017 00:00
Orbit: 401 x 407 km, 51.6° (Epoch: 24 September)

Date Brightness Start Highest point End Pass type
(mag) Time Alt. Az. Time Alt. Az. Time Alt. Az.
24 Sep -2.3 20:45:18 10° SSW 20:47:03 23° S 20:47:03 23° S visible
25 Sep -2.0 19:53:55 10° S 19:56:03 16° SE 19:57:36 13° E visible
25 Sep -1.6 21:28:56 10° WSW 21:30:18 23° WSW 21:30:18 23° WSW visible
26 Sep -3.9 20:36:37 10° SW 20:39:52 69° SE 20:40:37 47° E visible
27 Sep -3.1 19:44:34 10° SSW 19:47:36 36° SE 19:50:39 10° ENE visible
27 Sep -2.1 21:21:00 10° W 21:23:25 32° NW 21:23:25 32° NW visible
28 Sep -3.3 20:28:24 10° WSW 20:31:38 56° NNW 20:33:23 24° NE visible
28 Sep -0.2 22:06:01 10° WNW 22:06:03 10° WNW 22:06:03 10° WNW visible
29 Sep -3.9 19:35:58 10° SW 19:39:14 85° SSE 19:42:31 10° ENE visible
29 Sep -1.8 21:13:14 10° WNW 21:15:54 25° NNW 21:15:54 25° NNW visible
30 Sep -2.3 20:20:28 10° W 20:23:28 32° NNW 20:25:39 16° NE visible
30 Sep -0.2 21:58:11 10° NW 21:58:17 11° NW 21:58:17 11° NW visible
01 Oct -3.0 19:27:46 10° WSW 19:30:57 47° NNW 19:34:09 10° NE visible
01 Oct -1.6 21:05:28 10° WNW 21:07:57 20° N 21:07:57 20° N visible
02 Oct -1.8 20:12:39 10° WNW 20:15:21 23° NNW 20:17:34 13° NE visible
02 Oct -0.3 21:50:03 10° NW 21:50:12 11° NW 21:50:12 11° NW visible
